Regional Weather Roundup
Issued by NWS

Home | Current Version | Previous Version | Graphics & Text | Print | Product List | Glossary On
Versions: 1 2 3 4 5 6 7 8 9 10 11 12 13 14 15 16 17 18 19 20 21 22 23 24 25 26 27 28 29 30 31 32 33 34 35 36 37 38 39 40 41 42 43 44 45 46 47 48 49 50
000
ASUS45 KBOU 300007
RWRCO

WEATHER ROUNDUP FOR COLORADO
NATIONAL WEATHER SERVICE DENVER/BOULDER CO
600 PM MDT FRI MAY 29 2015

NOTE: "FAIR" INDICATES FEW OR NO CLOUDS BELOW 12000 FEET WITH NO
SIGNIFICANT WEATHER AND/OR OBSTRUCTIONS TO VISIBILITY.

COZ001>005-013-030-031-300100-
...NORTHWEST COLORADO...

CITY           SKY/WX    TMP DP  RH WIND       PRES   REMARKS
CRAIG          MOSUNNY   61  42  49 E5        30.26F
HAYDEN         PTSUNNY   57  36  44 NE5       30.29S
MEEKER         MOSUNNY   62  41  46 E5        30.25F
MOUNT WERNER   NOT AVBL
STEAMBOAT SPGS PTSUNNY   57  41  54 S5        30.30S
WALDEN         PTSUNNY   50  36  57 W5        30.35R
$$

COZ006>008-011-300100-
...WEST CENTRAL VALLEYS...

CITY           SKY/WX    TMP DP  RH WIND       PRES   REMARKS
GRAND JUNCTION SUNNY     72  40  31 VRB6      30.13F
MONTROSE       SUNNY     71  35  26 N5        30.20S
EAGLE          PTSUNNY   68  46  45 NE10      30.27R
RIFLE          MOSUNNY   71  37  28 NW12      30.18S
DELTA          MOSUNNY   79  24  13 W12       30.14F
NUCLA          SUNNY     73  27  17 NW5       30.20F
$$

COZ017>023-064>068-300100-
...SOUTHWEST COLORADO...

CITY           SKY/WX    TMP DP  RH WIND       PRES   REMARKS
DURANGO        SUNNY     72  21  14 W20G25    30.15S
CORTEZ         SUNNY     74  26  16 N14G24    30.15F
PAGOSA SPRINGS CLOUDY    63  31  29 NE5       30.26S
TELLURIDE      MOSUNNY   59  29  32 N5        30.35F
WOLF CREEK PAS NOT AVBL
$$

COZ009-010-012-014-032>034-037-058>063-300100-
...CENTRAL COLORADO...

CITY           SKY/WX    TMP DP  RH WIND       PRES   REMARKS
ASPEN          PTSUNNY   56  40  55 SE6       30.28R
BUENA VISTA    PTSUNNY   62  21  21 CALM      30.25S
COPPER MTN     PTSUNNY   37  28  70 SW7       30.49S THUNDER
BERTHOUD PASS  TSTM      30  23  74 NW15      30.51R WCI  19
COTTONWOOD PAS PTSUNNY   61  19  20 W5        30.35S
GUNNISON       MOSUNNY   63  28  27 N8        30.28S
KREMMLING      CLOUDY    54  34  47 NE10      30.31S THUNDER
LEADVILLE      PTSUNNY   47  28  47 SW9       30.36S
SALIDA         PTSUNNY   67  26  21 W10G18    30.29F
SUNLIGHT       MOSUNNY   48  32  53 CALM      30.47S
WILKERSON PASS PTSUNNY   43  30  61 E8        30.46F
$$

COZ069>075-300100-
...SAN LUIS VALLEY/SANGRE DE CRISTO MOUNTAINS...

CITY           SKY/WX    TMP DP  RH WIND       PRES   REMARKS
ALAMOSA        PTSUNNY   65  26  23 SW8       30.22F
LA VETA PASS   PTSUNNY  N/A N/A N/A MISG      30.38F
SAGUACHE       MOSUNNY   66  23  19 NW8G22    30.23S
$$

COZ035-036-038>040-300100-
...NORTHERN COLORADO FRONT RANGE...

CITY           SKY/WX    TMP DP  RH WIND       PRES   REMARKS
DENVER INTL AP PTSUNNY   57  48  72 NE21G30   30.23F
DMNS CITY PARK   N/A     58  46  65 NE16      30.27R
AURORA         PTSUNNY   57  47  70 NE12      30.26R
FRONT RANGE AP NOT AVBL
ERIE MUNI ARPT CLOUDY    57  49  74 N13       30.25S
BOULDER MUN AP CLOUDY    55  50  82 NW5       30.27R
CENTENNIAL     CLOUDY    58  44  60 N13       30.26R
BROOMFIELD     NOT AVBL
FORT COLLINS   CLOUDY    54  48  82 NE7       30.29R
LONGMONT       CLOUDY    59  48  68 N5        30.29R
$$

COZ041-046-047-076>085-087-088-300100-
...PIKES PEAK/PALMER DIVIDE AND SOUTHERN FOOTHILLS...

CITY           SKY/WX    TMP DP  RH WIND       PRES   REMARKS
COLO. SPRINGS  CLOUDY    56  46  69 E12       30.24R
A. F. ACADEMY  TSTM      55  45  68 NE9       30.24R
ELLICOTT       TSTM     N/A N/A N/A NE17G29   30.23R
FALCON         DRIZZLE   52  44  73 E9        30.27R
FORT CARSON    NOT AVBL
LIMON          MOSUNNY   60  45  57 N20G25    30.21S
MONUMENT HILL  CLOUDY    52  41  66 MISG      30.28S
TRINIDAD       CLOUDY    64  45  49 E13G23    30.14S
$$

COZ042>045-048>051-090-091-300100-
...NORTHEAST COLORADO...

CITY           SKY/WX    TMP DP  RH WIND       PRES   REMARKS
GREELEY ARPT   CLOUDY    54  50  87 W5        30.27R
AKRON          PTSUNNY   54  47  77 N23G29    30.22R
BURLINGTON     MOSUNNY   62  50  64 N22G29    30.17R
WRAY           PTSUNNY   60  49  65 N20G26    30.19R
STERLING       CLOUDY    54  46  76 N14G22    30.23R
HOLYOKE        PTSUNNY   59  48  67 N17G24    30.20R
FORT MORGAN    PTSUNNY   58  46  63 N18G26    30.25R
$$

COZ086-089-092>099-300100-
...SOUTHEAST COLORADO...

CITY           SKY/WX    TMP DP  RH WIND       PRES   REMARKS
PUEBLO         PTSUNNY   72  43  35 NE13      30.13R
LA JUNTA       MOSUNNY   71  44  37 NE9       30.12R
LAMAR          MOSUNNY   73  46  38 NE13      30.08R
SPRINGFIELD      N/A     71  47  42 N15       30.10F
$$


USA.gov is the U.S. government's official web portal to all federal, state and local government web resources and services.